| time (UTC) | temp C | wind direction | speed KPH | gust KPH | rain 1hr cm | rain 24hr cm | rain mn cm | humidity % | barometer mb |
| 20260507041304 | 5 | 296 | 0.0 | 1.6 | 0.00 | 0.00 | 0.00 | 86 | 1013.8 |
| 20260507040304 | 5 | 296 | 0.0 | 1.6 | 0.00 | 0.00 | 0.00 | 86 | 1013.8 |
| 20260507033804 | 5 | 296 | 0.0 | 1.6 | 0.00 | 0.00 | 0.00 | 86 | 1013.6 |
| 20260507024804 | 5 | 296 | 0.0 | 3.2 | 0.00 | 0.00 | 0.00 | 87 | 1013.4 |
| 20260507024304 | 5 | 296 | 1.6 | 3.2 | 0.00 | 0.00 | 0.00 | 87 | 1013.4 |
| 20260507021803 | 5 | 298 | 1.6 | 3.2 | 0.00 | 0.00 | 0.00 | 86 | 1013.2 |
| 20260507021304 | 5 | 298 | 1.6 | 3.2 | 0.00 | 0.00 | 0.00 | 86 | 1013.2 |
| 20260507020803 | 5 | 298 | 1.6 | 3.2 | 0.00 | 0.00 | 0.00 | 86 | 1013.2 |
| 20260507014303 | 5 | 298 | 0.0 | 3.2 | 0.00 | 0.00 | 0.00 | 86 | 1013.0 |
| 20260507013804 | 5 | 299 | 1.6 | 3.2 | 0.00 | 0.00 | 0.00 | 86 | 1013.0 |
| 20260507013314 | 5 | 299 | 1.6 | 3.2 | 0.00 | 0.00 | 0.00 | 85 | 1013.0 |
| 20260507011304 | 5 | 299 | 0.0 | 3.2 | 0.00 | 0.00 | 0.00 | 85 | 1013.0 |
| 20260507003804 | 6 | 308 | 1.6 | 3.2 | 0.00 | 0.00 | 0.00 | 84 | 1012.9 |
| 20260507003304 | 6 | 308 | 1.6 | 3.2 | 0.00 | 0.00 | 0.00 | 84 | 1012.9 |
| 20260507001804 | 6 | 310 | 1.6 | 4.8 | 0.00 | 0.00 | 0.00 | 84 | 1012.8 |
| 20260507000803 | 6 | 302 | 1.6 | 4.8 | 0.00 | 0.00 | 0.00 | 84 | 1012.8 |
| 20260507000306 | 6 | 296 | 1.6 | 4.8 | 0.00 | 0.00 | 0.00 | 84 | 1012.8 |
| 20260506234803 | 6 | 311 | 1.6 | 4.8 | 0.00 | 0.00 | 0.00 | 83 | 1012.9 |
| 20260506231304 | 6 | 329 | 0.0 | 3.2 | 0.00 | 0.00 | 0.00 | 82 | 1012.8 |
| 20260506230804 | 6 | 316 | 1.6 | 3.2 | 0.00 | 0.00 | 0.00 | 82 | 1012.8 |
| 20260506223304 | 7 | 32 | 0.0 | 4.8 | 0.00 | 0.00 | 0.00 | 82 | 1012.7 |
| 20260506214804 | 7 | 207 | 1.6 | 4.8 | 0.00 | 0.00 | 0.00 | 82 | 1012.5 |
| 20260506214303 | 7 | 208 | 1.6 | 4.8 | 0.00 | 0.00 | 0.00 | 82 | 1012.5 |
| 20260506213303 | 7 | 185 | 1.6 | 4.8 | 0.00 | 0.00 | 0.00 | 82 | 1012.4 |
| 20260506211803 | 7 | 71 | 1.6 | 3.2 | 0.00 | 0.00 | 0.00 | 81 | 1012.3 |
| 20260506210803 | 7 | 67 | 1.6 | 3.2 | 0.00 | 0.00 | 0.00 | 81 | 1012.4 |
| 20260506210303 | 8 | 287 | 1.6 | 4.8 | 0.00 | 0.00 | 0.00 | 81 | 1012.3 |
| 20260506204304 | 8 | 269 | 1.6 | 3.2 | 0.00 | 0.00 | 0.00 | 80 | 1012.3 |
| 20260506203804 | 8 | 258 | 1.6 | 4.8 | 0.00 | 0.00 | 0.00 | 79 | 1012.3 |
| 20260506203303 | 8 | 263 | 1.6 | 4.8 | 0.00 | 0.00 | 0.00 | 79 | 1012.3 |
| 20260506201803 | 8 | 6 | 1.6 | 4.8 | 0.00 | 0.00 | 0.00 | 78 | 1012.2 |
| 20260506200803 | 8 | 42 | 1.6 | 4.8 | 0.00 | 0.00 | 0.00 | 78 | 1012.1 |
| 20260506194804 | 9 | 228 | 1.6 | 4.8 | 0.00 | 0.00 | 0.00 | 77 | 1011.9 |
| 20260506193304 | 10 | 101 | 1.6 | 4.8 | 0.00 | 0.00 | 0.00 | 75 | 1011.9 |
| 20260506191303 | 10 | 88 | 3.2 | 9.7 | 0.00 | 0.00 | 0.00 | 73 | 1011.7 |
| 20260506190804 | 10 | 33 | 4.8 | 9.7 | 0.00 | 0.00 | 0.00 | 73 | 1011.6 |
| 20260506190304 | 10 | 85 | 3.2 | 12.9 | 0.00 | 0.00 | 0.00 | 72 | 1011.5 |
| 20260506183804 | 11 | 70 | 1.6 | 11.3 | 0.00 | 0.00 | 0.00 | 70 | 1011.1 |
| 20260506181304 | 11 | 117 | 4.8 | 12.9 | 0.00 | 0.00 | 0.00 | 67 | 1010.9 |
| 20260506180803 | 11 | 62 | 4.8 | 12.9 | 0.00 | 0.00 | 0.00 | 66 | 1010.8 |
| 20260506174803 | 11 | 188 | 3.2 | 12.9 | 0.00 | 0.00 | 0.00 | 67 | 1010.6 |
| 20260506171804 | 12 | 81 | 4.8 | 12.9 | 0.00 | 0.00 | 0.00 | 65 | 1010.3 |
| 20260506170304 | 12 | 95 | 4.8 | 19.3 | 0.00 | 0.00 | 0.00 | 65 | 1010.2 |
| 20260506163803 | 13 | 79 | 4.8 | 19.3 | 0.00 | 0.00 | 0.00 | 62 | 1010.1 |
| 20260506163304 | 13 | 80 | 9.7 | 19.3 | 0.00 | 0.00 | 0.00 | 60 | 1010.1 |
| 20260506154806 | 13 | 144 | 4.8 | 19.3 | 0.00 | 0.00 | 0.00 | 67 | 1010.0 |
| 20260506154304 | 13 | 56 | 9.7 | 20.9 | 0.00 | 0.00 | 0.00 | 66 | 1010.0 |
| 20260506153804 | 13 | 61 | 8.0 | 20.9 | 0.00 | 0.00 | 0.00 | 67 | 1010.0 |
| 20260506153303 | 13 | 107 | 4.8 | 19.3 | 0.00 | 0.00 | 0.00 | 68 | 1010.0 |
| 20260506151803 | 13 | 193 | 4.8 | 14.5 | 0.00 | 0.00 | 0.00 | 68 | 1009.9 |
| 20260506151304 | 13 | 127 | 4.8 | 14.5 | 0.00 | 0.00 | 0.00 | 67 | 1009.9 |
| 20260506150804 | 13 | 117 | 4.8 | 14.5 | 0.00 | 0.00 | 0.00 | 68 | 1010.0 |
| 20260506150305 | 13 | 109 | 8.0 | 14.5 | 0.00 | 0.00 | 0.00 | 68 | 1009.9 |
| 20260506144803 | 13 | 103 | 8.0 | 19.3 | 0.00 | 0.00 | 0.00 | 67 | 1009.8 |
| 20260506144303 | 13 | 87 | 4.8 | 14.5 | 0.00 | 0.00 | 0.00 | 68 | 1009.7 |
| 20260506143814 | 13 | 70 | 8.0 | 19.3 | 0.00 | 0.00 | 0.00 | 68 | 1009.8 |
| 20260506141804 | 13 | 105 | 4.8 | 19.3 | 0.00 | 0.00 | 0.00 | 68 | 1009.7 |
| 20260506141303 | 13 | 146 | 4.8 | 19.3 | 0.00 | 0.00 | 0.00 | 67 | 1009.7 |
| 20260506140304 | 13 | 229 | 4.8 | 14.5 | 0.00 | 0.00 | 0.00 | 65 | 1009.7 |
| 20260506134303 | 13 | 176 | 6.4 | 19.3 | 0.00 | 0.00 | 0.00 | 63 | 1009.6 |
| 20260506133304 | 13 | 218 | 4.8 | 19.3 | 0.00 | 0.00 | 0.00 | 64 | 1009.7 |
| 20260506130303 | 13 | 86 | 4.8 | 11.3 | 0.00 | 0.00 | 0.00 | 62 | 1009.6 |
| 20260506124804 | 13 | 72 | 3.2 | 14.5 | 0.00 | 0.00 | 0.00 | 59 | 1009.6 |
| 20260506124304 | 13 | 60 | 8.0 | 14.5 | 0.00 | 0.00 | 0.00 | 56 | 1009.6 |
| 20260506123804 | 13 | 71 | 4.8 | 16.1 | 0.00 | 0.00 | 0.00 | 55 | 1009.6 |
| 20260506123304 | 13 | 51 | 6.4 | 16.1 | 0.00 | 0.00 | 0.00 | 54 | 1009.6 |
| 20260506121803 | 13 | 69 | 3.2 | 19.3 | 0.00 | 0.00 | 0.00 | 54 | 1009.5 |
| 20260506120803 | 13 | 68 | 9.7 | 22.5 | 0.00 | 0.00 | 0.00 | 52 | 1009.5 |
| 20260506114804 | 13 | 83 | 8.0 | 19.3 | 0.00 | 0.00 | 0.00 | 52 | 1009.4 |
| 20260506113804 | 13 | 74 | 4.8 | 25.7 | 0.00 | 0.00 | 0.00 | 53 | 1009.4 |
| 20260506113303 | 13 | 59 | 9.7 | 25.7 | 0.00 | 0.00 | 0.00 | 53 | 1009.4 |
| 20260506110303 | 13 | 89 | 12.9 | 24.1 | 0.00 | 0.00 | 0.00 | 54 | 1009.3 |
| 20260506104803 | 12 | 79 | 8.0 | 20.9 | 0.00 | 0.00 | 0.00 | 58 | 1009.2 |
| 20260506103804 | 12 | 58 | 8.0 | 22.5 | 0.00 | 0.00 | 0.00 | 58 | 1009.3 |
| 20260506101304 | 12 | 72 | 4.8 | 19.3 | 0.00 | 0.00 | 0.00 | 62 | 1009.2 |
| 20260506094803 | 11 | 108 | 6.4 | 14.5 | 0.00 | 0.00 | 0.00 | 65 | 1009.2 |
| 20260506093804 | 11 | 88 | 6.4 | 14.5 | 0.00 | 0.00 | 0.00 | 65 | 1009.1 |
| 20260506093303 | 11 | 69 | 4.8 | 14.5 | 0.00 | 0.00 | 0.00 | 63 | 1009.1 |
| 20260506091804 | 12 | 79 | 4.8 | 12.9 | 0.00 | 0.00 | 0.00 | 64 | 1009.0 |
| 20260506091304 | 11 | 79 | 6.4 | 12.9 | 0.00 | 0.00 | 0.00 | 65 | 1009.0 |
| 20260506090303 | 11 | 80 | 8.0 | 19.3 | 0.00 | 0.00 | 0.00 | 65 | 1009.0 |
| 20260506084303 | 11 | 66 | 6.4 | 20.9 | 0.00 | 0.00 | 0.00 | 65 | 1008.9 |
| 20260506081804 | 11 | 66 | 12.9 | 24.1 | 0.00 | 0.00 | 0.00 | 64 | 1008.9 |
| 20260506081304 | 11 | 78 | 4.8 | 19.3 | 0.00 | 0.00 | 0.00 | 65 | 1008.8 |
| 20260506080814 | 11 | 70 | 8.0 | 19.3 | 0.00 | 0.00 | 0.00 | 64 | 1008.8 |
| 20260506071803 | 11 | 56 | 4.8 | 19.3 | 0.00 | 0.00 | 0.00 | 75 | 1008.6 |
| 20260506071304 | 11 | 81 | 4.8 | 19.3 | 0.00 | 0.00 | 0.00 | 77 | 1008.6 |
| 20260506070803 | 11 | 62 | 9.7 | 19.3 | 0.00 | 0.00 | 0.00 | 77 | 1008.6 |
| 20260506070303 | 11 | 67 | 3.2 | 11.3 | 0.00 | 0.00 | 0.00 | 79 | 1008.5 |
| 20260506061804 | 10 | 52 | 1.6 | 4.8 | 0.00 | 0.00 | 0.00 | 84 | 1008.5 |
| 20260506061303 | 10 | 145 | 1.6 | 9.7 | 0.00 | 0.00 | 0.00 | 85 | 1008.5 |
| 20260506060305 | 9 | 104 | 1.6 | 4.8 | 0.00 | 0.00 | 0.00 | 87 | 1008.5 |
| 20260506050315 | 8 | 96 | 1.6 | 4.8 | 0.00 | 0.00 | 0.00 | 88 | 1008.4 |
| 20260506044303 | 8 | 221 | 3.2 | 4.8 | 0.00 | 0.00 | 0.00 | 87 | 1008.4 |
| 20260506043803 | 8 | 46 | 1.6 | 4.8 | 0.00 | 0.00 | 0.00 | 87 | 1008.4 |